Regional Weather Roundup
Issued by NWS Newport/Morehead, NC

Current Version | Previous Version | Graphics & Text | Print | Product List | Glossary Off
Versions: 1 2 3 4 5 6 7 8 9 10 11 12 13 14 15 16 17 18 19 20 21 22 23 24 25 26 27 28 29 30 31 32 33 34 35 36 37 38 39 40 41 42 43 44 45 46 47 48 49 50

000
ASUS42 KMHX 250822
RWRMHX
WEATHER ROUNDUP FOR EASTERN NORTH CAROLINA
NATIONAL WEATHER SERVICE NEWPORT/MOREHEAD CITY NC
400 AM EDT SAT OCT 25 2014

NOTE: "FAIR" INDICATES FEW OR NO CLOUDS BELOW 12,000 FEET
WITH NO SIGNIFICANT WEATHER AND/OR OBSTRUCTIONS TO VISIBILITY

NCZ015>017-031-032-045>047-102-103-250900-
NORTH COAST

CITY           SKY/WX    TMP DP  RH WIND       PRES   REMARKS
EDENTON        CLEAR     44  43  95 N3        29.95S
ELIZABETH CITY CLEAR     53  46  77 NW9       29.95S
KITTY HAWK     SUNNY     56  49  77 NW3       29.93S
MANTEO         CLEAR     54  52  91 NW5       29.94S

$$

NCZ045>047-081-094-103-104-250900-
CENTRAL COAST

CITY           SKY/WX    TMP DP  RH WIND       PRES   REMARKS
FRISCO         CLEAR     50  50 100 N3        29.94F
SWANQUARTER      N/A     48 N/A N/A NW2       29.91S

$$

NCZ095-097-098-100-101-250900-
SOUTHERN COAST

CITY           SKY/WX    TMP DP  RH WIND       PRES   REMARKS
BEAUFORT       CLEAR     54  50  86 NW6       29.96F
CEDAR ISLAND     N/A     61 N/A N/A W3        29.97S
JACKSONVILLE   CLEAR     48  46  93 CALM      29.96F
PINEY ISLAND   SUNNY     57  49  74 NW7       29.95F
WILMINGTON     CLEAR     49  47  93 CALM      29.96F


$$

NCZ011>013-027>030-043-044-078>080-089-090>093-098-250900-
COASTAL PLAIN

CITY           SKY/WX    TMP DP  RH WIND       PRES   REMARKS
AHOSKIE        CLEAR     40  40  97 N8        29.97R
CLINTON        CLEAR     45  45 100 CALM      29.97F
ELIZABETHTOWN  CLEAR     46  45  95 CALM      29.97S
GOLDSBORO      CLEAR     46  46 100 CALM      29.95S FOG
GREENVILLE     LGT RAIN  45  45 100 CALM      29.98S VSB 3/4
HAVELOCK       CLEAR     45  43  93 W3        29.97F FOG
KENANSVILLE    CLEAR     42  41  99 CALM      29.97S
KINSTON        CLEAR     42  41  97 CALM      29.97S FOG
NEW BERN       CLEAR     48  45  89 S3        29.97F
RICHLANDS      CLEAR     43  37  81 CALM      29.97S
ROCKY MOUNT    CLEAR     43  41  93 CALM      29.96S FOG
WASHINGTON     CLEAR     45  44  96 CALM      29.95F
WHITEVILLE     CLEAR     47  46  94 CALM      29.97S

$$

AMZ130-135-150-152-154-156-158-170-250-252-270-ANZ085-086-088-633-658-670-250900-
MARINE OBSERVATIONS

STATION/POSITION TIME  TEMP    WIND        PRES    WAVE   SWELL
                       AIR SEA DIR/SP/G            HT/PER HT/PER
                 (UTC) (F)     (DEG/KT/KT) (MB)    (FT/S) (FT/S)
CHESAPEAKE LIGHT 0800   61     340/ 17/ 19 1014.2
64 E VA BEACH    0800   64 66  330/ 14/ 17 1012.6    4/ 5   2/ 9
DUCK             0800   58 65  330/ 11/ 13 1012.8
2 E DUCK         0800                        N/A     3/ 9
10 NE DUCK       0800      67                N/A     3/ 6
OREGON INLET     0800   57 64  290/  3/  4 1013.5
13E OREGON INLT  0800      69                N/A     4/ 9   2/11
HATTERAS CG      0800   63 65  330/  6/  7 1014.1
DIAMOND BUOY     0800   65     330/ 12/ 14 1014.0    3/ 9   2/ 9
17 S OCRACOKE    0700          VRB 10/ 14  1014.2
CAPE LOOKOUT     0800   61     320/  8/  9 1014.1
BEAUFORT LAB     0800   56 67  320/  3/  4 1013.7
30 SE NEW RIVER  0800   68 74  350/ 10/ 12 1013.9    3/ 9   2/ 9
5 SE WRIGHTSVLE  0800   61 71  290/  8/ 10   N/A
225 S CAPE HAT   0655   70 77  360/  6/ 12 1013.8    4/ 9   3/ 9
41 SE CHARLESTON 0800   69 78  360/  6/ 10 1014.4    3/10   3/10

$$



USA.gov is the U.S. government's official web portal to all federal, state and local government web resources and services.